STARLINK-2631

operational
NORAD ID: 48366 Int'l Des: 2021-038 Owner: SPXS Country: US Constellation: starlink
LEOCIRCULAR

关于 STARLINK-2631

正在加载描述...

实时位置

正在加载3D地球...

即将过境

高度历史

Altitude vs Time

uPlot chart will show altitude changes over time

两行轨道根数

1 48366U 21038P 25231.24739461 .11132663 12347-4 73614-3 0 9998
2 48366 53.0310 142.2815 0007394 253.8945 250.0797 16.40691725237769
Epoch: Aug 19, 2025 • Age: 498 hours

当前状态

Position data unavailable
发射日期 May 4, 2021
运行时间 4.3 years
衰减日期 Aug 19, 2025
类型 internet

技术详情

分类 Payload
质量 260.00 kg
干质量 248.00 kg
总质量 260.00 kg
长度 0.20 m
直径 2.80 m
跨度 9.00 m
形状 Box + pan
制造商 SPXS
平台类型 Starlink
阶段状态 Reentered
所有者/国家 SPXS/US

大型星座

Loading constellations...